When you browse on this site, cookies collect data to enhance your experience and personalize the content and advertising you see.
Visit our Privacy Policy to learn more. By continuing to use the site, you agree to this use of cookies and data.
  • In Lithuania
  • List of Countries
  • For 7 days
  • Water Temperature
  • Satellite Maps
  • Weather Map
  • Weather Widgets
  • user-avatar
    Login

    Hourly Weather Oktyabrskiy

    Today, 26 March, Tuesday

    Time Temperature Precipitation Wind Pressure Humidity
    00:00 +3°C° 0 mm 3 mps 742 mmHg 78%
    01:00 +3°C° 0 mm 3 mps 742 mmHg 78%
    02:00 +3°C° 0 mm 4 mps 742 mmHg 79%
    03:00 +3°C° 0 mm 4 mps 742 mmHg 79%
    04:00 +3°C° 0.1 mm 4 mps 742 mmHg 79%
    05:00 +2°C° 0.1 mm 5 mps 742 mmHg 79%
    06:00 +2°C° 0.1 mm 5 mps 742 mmHg 79%
    07:00 +3°C° 0 mm 6 mps 742 mmHg 75%
    08:00 +4°C° 0 mm 6 mps 742 mmHg 71%
    09:00 +5°C° 0 mm 7 mps 742 mmHg 67%
    10:00 +6°C° 0 mm 7 mps 742 mmHg 62%
    11:00 +8°C° 0 mm 7 mps 742 mmHg 57%
    12:00 +9°C° 0 mm 6 mps 742 mmHg 52%
    13:00 +10°C° 0 mm 6 mps 742 mmHg 50%
    14:00 +10°C° 0 mm 6 mps 742 mmHg 47%
    15:00 +11°C° 0 mm 6 mps 742 mmHg 45%
    16:00 +10°C° 0 mm 5 mps 741 mmHg 47%
    17:00 +11°C° 0 mm 3 mps 741 mmHg 49%
    18:00 +10°C° 0 mm 2 mps 741 mmHg 52%
    19:00 +10°C° 0 mm 2 mps 741 mmHg 54%
    20:00 +9°C° 0 mm 2 mps 741 mmHg 57%
    21:00 +9°C° 0 mm 1 mps 741 mmHg 59%
    22:00 +9°C° 0 mm 1 mps 741 mmHg 60%
    23:00 +9°C° 0 mm 1 mps 741 mmHg 61%

    Tomorrow, 27 March, Wednesday

    Time Temperature Precipitation Wind Pressure Humidity
    00:00 +8°C° 0 mm 1 mps 741 mmHg 62%
    01:00 +8°C° 0 mm 1 mps 741 mmHg 64%
    02:00 +7°C° 0 mm 1 mps 740 mmHg 66%
    03:00 +6°C° 0 mm 1 mps 740 mmHg 68%
    04:00 +6°C° 0 mm 1 mps 740 mmHg 70%
    05:00 +6°C° 0 mm 1 mps 740 mmHg 72%
    06:00 +5°C° 0 mm 1 mps 740 mmHg 74%
    07:00 +5°C° 0.1 mm 2 mps 740 mmHg 73%
    08:00 +6°C° 0.1 mm 2 mps 740 mmHg 73%
    09:00 +6°C° 0.1 mm 2 mps 740 mmHg 73%
    10:00 +6°C° 0.4 mm 2 mps 740 mmHg 77%
    11:00 +5°C° 0.4 mm 3 mps 740 mmHg 81%
    12:00 +5°C° 0.4 mm 3 mps 740 mmHg 85%
    13:00 +5°C° 0.3 mm 3 mps 740 mmHg 82%
    14:00 +5°C° 0.3 mm 3 mps 740 mmHg 79%
    15:00 +7°C° 0.3 mm 3 mps 740 mmHg 76%
    16:00 +7°C° 0.1 mm 2 mps 740 mmHg 74%
    17:00 +7°C° 0.1 mm 2 mps 741 mmHg 73%
    18:00 +8°C° 0.1 mm 1 mps 741 mmHg 71%
    19:00 +8°C° 1 mm 1 mps 741 mmHg 75%
    20:00 +7°C° 1 mm 1 mps 741 mmHg 80%
    21:00 +5°C° 1 mm 2 mps 742 mmHg 84%
    22:00 +5°C° 1.4 mm 2 mps 742 mmHg 86%
    23:00 +5°C° 1.4 mm 2 mps 742 mmHg 87%

    Day after tomorrow, 28 March, Thursday

    Time Temperature Precipitation Wind Pressure Humidity
    00:00 +4°C° 1.4 mm 2 mps 742 mmHg 88%
    01:00 +4°C° 1.2 mm 2 mps 742 mmHg 88%
    02:00 +3°C° 1.2 mm 3 mps 742 mmHg 87%
    03:00 +1°C° 1.2 mm 4 mps 742 mmHg 87%
    04:00 +1°C° 1.3 mm 5 mps 743 mmHg 87%
    05:00 -1°C° 1.3 mm 6 mps 743 mmHg 87%
    06:00 -1°C° 1.3 mm 7 mps 743 mmHg 87%
    07:00 -1°C° 0 mm 7 mps 744 mmHg 85%
    08:00 -1°C° 0 mm 6 mps 745 mmHg 84%
    09:00 0°C° 0 mm 5 mps 745 mmHg 83%
    10:00 +1°C° 0 mm 5 mps 746 mmHg 75%
    11:00 +2°C° 0 mm 5 mps 746 mmHg 67%
    12:00 +2°C° 0 mm 5 mps 747 mmHg 59%
    13:00 +3°C° 0 mm 5 mps 747 mmHg 53%
    14:00 +5°C° 0 mm 4 mps 747 mmHg 48%
    15:00 +5°C° 0 mm 4 mps 747 mmHg 43%
    16:00 +5°C° 0 mm 4 mps 747 mmHg 46%
    17:00 +5°C° 0 mm 3 mps 748 mmHg 48%
    18:00 +4°C° 0 mm 3 mps 748 mmHg 51%
    19:00 +3°C° 0 mm 3 mps 748 mmHg 55%
    20:00 +4°C° 0 mm 2 mps 749 mmHg 60%
    21:00 +3°C° 0 mm 2 mps 749 mmHg 64%
    22:00 +2°C° 0 mm 2 mps 749 mmHg 66%
    23:00 +2°C° 0 mm 2 mps 750 mmHg 69%

    29 March, Friday

    Time Temperature Precipitation Wind Pressure Humidity
    00:00 +1°C° 0 mm 2 mps 750 mmHg 71%
    01:00 +1°C° 0 mm 2 mps 750 mmHg 72%
    02:00 -1°C° 0 mm 2 mps 750 mmHg 73%
    03:00 -1°C° 0 mm 2 mps 750 mmHg 74%
    04:00 -1°C° 0 mm 2 mps 750 mmHg 73%
    05:00 -1°C° 0 mm 2 mps 750 mmHg 73%
    06:00 -2°C° 0 mm 2 mps 750 mmHg 72%
    07:00 0°C° 0 mm 3 mps 750 mmHg 64%
    08:00 +1°C° 0 mm 3 mps 750 mmHg 56%
    09:00 +1°C° 0 mm 4 mps 750 mmHg 48%
    10:00 +3°C° 0 mm 4 mps 750 mmHg 45%
    11:00 +4°C° 0 mm 4 mps 750 mmHg 43%
    12:00 +5°C° 0 mm 5 mps 750 mmHg 41%
    13:00 +5°C° 0 mm 5 mps 749 mmHg 41%
    14:00 +5°C° 0 mm 5 mps 749 mmHg 41%
    15:00 +6°C° 0 mm 5 mps 748 mmHg 40%
    16:00 +6°C° 0 mm 4 mps 748 mmHg 43%
    17:00 +5°C° 0 mm 4 mps 748 mmHg 46%
    18:00 +5°C° 0 mm 4 mps 748 mmHg 50%
    19:00 +4°C° 0 mm 3 mps 748 mmHg 53%
    20:00 +3°C° 0 mm 3 mps 748 mmHg 57%
    21:00 +3°C° 0 mm 3 mps 748 mmHg 61%
    22:00 +3°C° 0 mm 3 mps 748 mmHg 62%
    23:00 +3°C° 0 mm 4 mps 747 mmHg 62%

    30 March, Saturday

    Time Temperature Precipitation Wind Pressure Humidity
    00:00 +3°C° 0 mm 4 mps 747 mmHg 63%
    01:00 +3°C° 0 mm 4 mps 747 mmHg 66%
    02:00 +3°C° 0 mm 4 mps 747 mmHg 68%
    03:00 +1°C° 0 mm 4 mps 746 mmHg 71%
    04:00 +1°C° 0 mm 4 mps 747 mmHg 75%
    05:00 +1°C° 0 mm 3 mps 747 mmHg 80%
    06:00 +1°C° 0 mm 3 mps 747 mmHg 85%
    07:00 +3°C° 0 mm 3 mps 747 mmHg 81%
    08:00 +4°C° 0 mm 3 mps 747 mmHg 77%
    09:00 +7°C° 0 mm 3 mps 747 mmHg 73%
    10:00 +8°C° 0 mm 3 mps 747 mmHg 67%
    11:00 +10°C° 0 mm 3 mps 747 mmHg 61%
    12:00 +11°C° 0 mm 3 mps 747 mmHg 55%
    13:00 +11°C° 0 mm 3 mps 747 mmHg 55%
    14:00 +12°C° 0 mm 3 mps 747 mmHg 54%
    15:00 +12°C° 0 mm 3 mps 746 mmHg 53%
    16:00 +12°C° 0 mm 3 mps 746 mmHg 56%
    17:00 +12°C° 0 mm 3 mps 746 mmHg 58%
    18:00 +11°C° 0 mm 3 mps 746 mmHg 61%
    19:00 +10°C° 0 mm 3 mps 746 mmHg 65%
    20:00 +9°C° 0 mm 3 mps 746 mmHg 69%
    21:00 +7°C° 0 mm 4 mps 746 mmHg 73%
    22:00 +7°C° 0 mm 3 mps 746 mmHg 74%
    23:00 +7°C° 0 mm 3 mps 746 mmHg 76%

    31 March, Sunday

    Time Temperature Precipitation Wind Pressure Humidity
    00:00 +5°C° 0 mm 3 mps 746 mmHg 78%
    01:00 +5°C° 0 mm 3 mps 746 mmHg 79%
    02:00 +5°C° 0 mm 3 mps 745 mmHg 79%
    03:00 +4°C° 0 mm 3 mps 745 mmHg 80%
    04:00 +5°C° 0 mm 2 mps 745 mmHg 81%
    05:00 +5°C° 0 mm 2 mps 745 mmHg 81%
    06:00 +6°C° 0 mm 1 mps 744 mmHg 81%
    07:00 +6°C° 0 mm 2 mps 744 mmHg 76%
    08:00 +8°C° 0 mm 2 mps 744 mmHg 71%
    09:00 +9°C° 0 mm 3 mps 744 mmHg 65%
    10:00 +11°C° 0 mm 3 mps 744 mmHg 60%
    11:00 +12°C° 0 mm 3 mps 744 mmHg 55%
    12:00 +13°C° 0 mm 3 mps 744 mmHg 51%
    13:00 +14°C° 0 mm 3 mps 743 mmHg 48%
    14:00 +15°C° 0 mm 2 mps 742 mmHg 45%
    15:00 +16°C° 0 mm 1 mps 742 mmHg 43%
    16:00 +16°C° 0 mm 2 mps 741 mmHg 45%
    17:00 +15°C° 0 mm 2 mps 741 mmHg 47%
    18:00 +15°C° 0 mm 2 mps 740 mmHg 49%
    19:00 +14°C° 0 mm 2 mps 740 mmHg 51%
    20:00 +12°C° 0 mm 2 mps 740 mmHg 54%
    21:00 +10°C° 0 mm 2 mps 740 mmHg 56%
    22:00 +10°C° 0 mm 2 mps 740 mmHg 57%
    23:00 +9°C° 0 mm 2 mps 739 mmHg 59%
    Show more